| time (UTC) | temp F | wind direction | speed knots | gust knots | rain 1hr in | rain 24hr in | rain mn in | humidity % | barometer mb |
| 20260506071712 | 54 | 230 | 6.1 | 0.0 | 0.00 | 0.00 | 0.00 | 62 | |
| 20260506061713 | 50 | 230 | 10.4 | 0.0 | 0.00 | 0.00 | 0.00 | 76 | |
| 20260506041912 | 46 | 220 | 12.2 | 0.0 | 0.00 | 0.00 | 0.00 | 87 | |
| 20260506031713 | 46 | 230 | 12.2 | 0.0 | 0.00 | 0.00 | 0.00 | 87 | |
| 20260506021713 | 46 | 240 | 12.2 | 0.0 | 0.00 | 0.00 | 0.00 | 87 | |
| 20260506011813 | 48 | 250 | 10.4 | 0.0 | 0.00 | 0.00 | 0.00 | 81 | |
| 20260506001712 | 48 | 240 | 12.2 | 0.0 | 0.00 | 0.00 | 0.00 | 81 | |
| 20260505231712 | 50 | 240 | 7.8 | 0.0 | 0.00 | 0.00 | 0.00 | 71 | |
| 20260505221711 | 50 | 280 | 4.3 | 0.0 | 0.00 | 0.00 | 0.00 | 87 | |
| 20260505211728 | 52 | 240 | 4.3 | 0.0 | 0.00 | 0.00 | 0.00 | 71 | |
| 20260505201728 | 54 | 250 | 7.8 | 0.0 | 0.00 | 0.00 | 0.00 | 66 | |
| 20260505191729 | 55 | 240 | 10.4 | 0.0 | 0.00 | 0.00 | 0.00 | 58 | |
| 20260505181712 | 57 | 140 | 1.7 | 0.0 | 0.00 | 0.00 | 0.00 | 62 | |
| 20260505171713 | 61 | 110 | 6.1 | 0.0 | 0.00 | 0.00 | 0.00 | 51 | |
| 20260505161812 | 64 | 30 | 4.3 | 0.0 | 0.00 | 0.00 | 0.00 | 42 | |
| 20260505151711 | 66 | 60 | 4.3 | 0.0 | 0.00 | 0.00 | 0.00 | 42 | |
| 20260505121713 | 64 | 0 | 4.3 | 0.0 | 0.00 | 0.00 | 0.00 | 45 | |
| 20260505111712 | 63 | 350 | 4.3 | 0.0 | 0.00 | 0.00 | 0.00 | 45 | |
| 20260505101712 | 64 | 0 | 4.3 | 0.0 | 0.00 | 0.00 | 0.00 | 36 | |
| 20260505091712 | 63 | 0 | 4.3 | 0.0 | 0.00 | 0.00 | 0.00 | 45 | |
| 20260505081713 | 63 | 10 | 4.3 | 0.0 | 0.00 | 0.00 | 0.00 | 45 |